[[{"header":{"parameterUnit":"m.s-1","parameterCategory":2,"la1":30.2991,"la2":30.254,"lo1":-89.0895,"lo2":-89.0444,"dy":0.0017,"dx":0.0017,"nx":28,"ny":28,"refTime":"2023-10-08T21:00:00:Z","depth":"0","parameterNumber":2,"parameterNumberName":"U-component_of_CURRENTS"},"data":[0,0,0,0,0,0,0,0,0,0,0,0,0,0,0,0,0,0,0,0,0,0,0,0,0,0,0,0,0,0,0,0,0,0,0,0,0,0,0,0,0,0,0,0,0,0,0,0,0,0,0,0,0,0,0,0,0,0,0.3443,0.3444,0,0.3432,0.3432,0.3431,0.3418,0.3418,0.3419,0.3419,0.3476,0.3477,0.3478,0,0,0,0,0,0,0,0,0,0,0,0,0,0.3399,0.34,0.3443,0.3444,0.3444,0.3433,0.3432,0.3431,0.3418,0.3418,0.3419,0.3419,0.3476,0.3477,0.3478,0,0,0,0,0,0,0,0,0,0,0,0,0,0.34,0.34,0.3443,0.3441,0.3441,0.3433,0.3432,0.3431,0.3418,0.3418,0.3419,0.3419,0.3475,0.3477,0.3479,0.3477,0,0,0.3484,0.3485,0,0,0,0,0,0,0,0,0.34,0.3401,0.3441,0.3441,0.3442,0.3433,0.3438,0.3452,0.3418,0.342,0.3419,0.342,0.3472,0.3474,0.346,0.348,0.3483,0.3484,0.3485,0.3486,0.3486,0,0,0,0,0,0,0,0.34,0.3401,0.3432,0.3442,0.3442,0.3423,0.3423,0.3439,0.3439,0.342,0.342,0.3429,0.3472,0.3458,0.3462,0.3483,0.3484,0.3486,0.3487,0.3487,0.365,0.3653,0,0,0,0,0,0,0.3417,0.3402,0.3433,0.3433,0.3429,0.3424,0.3424,0.343,0.3437,0.344,0.3429,0.3429,0.3455,0.346,0.3464,0.3543,0.3486,0.3487,0.3488,0.3646,0.365,0.3654,0,0,0,0,0,0,0.3416,0.342,0.3433,0.3422,0.3424,0.3425,0.3431,0.3429,0.3427,0.3445,0.3448,0.343,0.3456,0.3461,0.3503,0.3542,0.3488,0.349,0.3642,0.3648,0.3652,0.365,0,0,0,0,0,0,0.3415,0.3419,0.3423,0.3423,0.3425,0.3445,0.3431,0.3429,0.3434,0.3434,0.3447,0.3451,0.3457,0.3501,0.3505,0.3544,0.3491,0.3638,0.3645,0.365,0.3646,0.3655,0.3662,0,0,0,0,0,0.3413,0.3422,0.3423,0.3427,0.3432,0.3446,0.3445,0.3443,0.3434,0.3439,0.3456,0.3452,0.3545,0.3504,0.3508,0.3548,0.3635,0.3643,0.365,0.3643,0.3653,0.3661,0,0,0,0,0,0,0.3415,0.3422,0.3423,0.3436,0.3449,0.3447,0.3452,0.3447,0.3458,0.3462,0.3469,0.3476,0.354,0.3551,0.3505,0.3623,0.3599,0.3608,0.3593,0.3602,0.361,0.3636,0.3493,0,0,0,0,0,0.3416,0.3418,0.3432,0.3445,0.3452,0.345,0.3453,0.3456,0.3469,0.3472,0.3481,0.3518,0.3572,0.3589,0.3631,0.3669,0.3689,0.3713,0.372,0.3726,0.3758,0.381,0.3824,0.3678,0.3678,0.3678,0,0,0.3417,0.3427,0.3426,0.3444,0.3449,0.3469,0.3452,0.3468,0.3494,0.348,0.3513,0.3541,0.3593,0.3651,0.3682,0.3661,0.3777,0.3736,0.3739,0.3769,0.3819,0.3833,0.3845,0.3683,0.3682,0.3681,0,0,0.3434,0.3436,0.3446,0.346,0.3482,0.3484,0.3494,0.3499,0.3513,0.355,0.3567,0.3619,0.3667,0.3715,0.3749,0.383,0.3822,0.3848,0.3891,0.394,0.3951,0.3962,0.398,0.3992,0.3841,0.3841,0.3841,0,0.3439,0.3451,0.3453,0.3478,0.349,0.3496,0.3516,0.354,0.356,0.3582,0.3575,0.3681,0.371,0.3806,0.3843,0.3846,0.3859,0.3834,0.3945,0.3956,0.3966,0.3983,0.3996,0.3842,0.3842,0.3842,0.3842,0,0.3468,0.3477,0.3489,0.3516,0.3534,0.355,0.3588,0.3609,0.3623,0.3646,0.3732,0.3773,0.3836,0.3863,0.3878,0.398,0.3959,0.3946,0.3905,0.398,0.3994,0.4007,0.3843,0.3843,0.3843,0.3842,0,0,0.3465,0.3497,0.35,0.3514,0.3548,0.3568,0.3623,0.3669,0.3716,0.3753,0.3822,0.3915,0.3926,0.3971,0.3992,0.4044,0.4117,0.4029,0.4031,0.4019,0.4205,0.4057,0.4058,0.4108,0.4111,0.4113,0.4172,0,0.3478,0.3516,0.3531,0.3568,0.3583,0.3611,0.3662,0.3716,0.3764,0.3835,0.3905,0.3985,0.3972,0.4009,0.4059,0.4128,0.4159,0.4102,0.4161,0.4164,0.4,0.4071,0.3901,0.3928,0.4186,0.4188,0.419,0,0.3488,0.3511,0.3543,0.3584,0.3596,0.3629,0.37,0.3751,0.386,0.3902,0.3981,0.4036,0.4149,0.412,0.424,0.4199,0.421,0.4241,0.4242,0.4124,0.4043,0.3906,0.3943,0.3872,0.4211,0.4209,0.4207,0,0.3465,0.3512,0.3533,0.3548,0.3608,0.3638,0.3675,0.3768,0.3814,0.3956,0.4004,0.4127,0.4186,0.4257,0.4299,0.4285,0.4408,0.4386,0.4257,0.4245,0.4126,0.4097,0.4081,0.4459,0.4458,0.4458,0.4458,0,0.3455,0.3472,0.3528,0.3542,0.3574,0.3635,0.3689,0.3749,0.3855,0.3916,0.4033,0.4098,0.4225,0.4294,0.4335,0.4328,0.4423,0.429,0.4264,0.4117,0.4088,0.4041,0.4007,0.446,0.446,0.446,0.4459,0,0.342,0.3454,0.3477,0.3541,0.3557,0.3587,0.3654,0.3701,0.3812,0.3902,0.395,0.4092,0.4187,0.4269,0.4383,0.4335,0.4246,0.4334,0.4134,0.4081,0.3872,0.3843,0.3662,0.3561,0.4226,0.4223,0.4221,0,0.3404,0.3416,0.3456,0.3459,0.3483,0.353,0.3551,0.3656,0.3703,0.3878,0.3913,0.4045,0.4097,0.4191,0.417,0.4193,0.4119,0.4015,0.396,0.3852,0.3805,0.3661,0.3581,0.3805,0.3799,0.3795,0.3791,0,0.3371,0.3384,0.3398,0.3394,0.3411,0.3431,0.3479,0.3507,0.3642,0.3706,0.379,0.3862,0.3941,0.3884,0.3898,0.3898,0.3812,0.3913,0.3878,0.354,0.3311,0.3202,0.3763,0.3748,0.3753,0.3756,0.3758,0.376,0.3333,0.3318,0.3322,0.3304,0.3315,0.3314,0.3281,0.3352,0.3389,0.3442,0.3595,0.3608,0.3652,0.3646,0.3613,0.3462,0.3476,0.3381,0.3378,0.326,0.3083,0.3522,0.3419,0.3421,0.3423,0.3425,0.3426,0,0.3242,0.3228,0.3224,0.3175,0.3117,0.3175,0.3195,0.3137,0.3102,0.322,0.3239,0.3256,0.3197,0.3229,0.3126,0.2984,0.2859,0.2913,0.2731,0.27,0.3176,0.308,0.2802,0.2802,0.2802,0.2802,0.2802,0.2802,0.3193,0.3126,0.3105,0.2969,0.2934,0.2816,0.279,0.2749,0.2783,0.2742,0.2733,0.2798,0.2936,0.289,0.2753,0.2685,0.2518,0.2326,0.2374,0.2785,0.283,0.2874,0.2778,0.2442,0.2441,0.1784,0.178,0.1776]},{"header":{"parameterUnit":"m.s-1","parameterCategory":2,"la1":30.2991,"la2":30.254,"lo1":-89.0895,"lo2":-89.0444,"dy":0.0017,"dx":0.0017,"nx":28,"ny":28,"refTime":"2023-10-08T21:00:00:Z","depth":"0","parameterNumber":3,"parameterNumberName":"V-component_of_CURRENTS"},"data":[0,0,0,0,0,0,0,0,0,0,0,0,0,0,0,0,0,0,0,0,0,0,0,0,0,0,0,0,0,0,0,0,0,0,0,0,0,0,0,0,0,0,0,0,0,0,0,0,0,0,0,0,0,0,0,0,0,0,0.0412,0.0411,0,0.0312,0.0311,0.031,0.0234,0.0234,0.0234,0.0233,0.0118,0.0115,0.0112,0,0,0,0,0,0,0,0,0,0,0,0,0,0.0456,0.0456,0.0412,0.0411,0.041,0.0313,0.0311,0.0309,0.0234,0.0234,0.0233,0.0233,0.0119,0.0115,0.0112,0,0,0,0,0,0,0,0,0,0,0,0,0,0.0402,0.0456,0.0412,0.0364,0.0359,0.0313,0.0311,0.0309,0.0234,0.0234,0.0233,0.0233,0.012,0.0116,0.0112,0.0097,0,0,0.0099,0.0097,0,0,0,0,0,0,0,0,0.0405,0.04,0.0372,0.0367,0.0361,0.0288,0.0284,0.0238,0.0235,0.0278,0.0233,0.0233,0.0176,0.0167,0.0145,0.0092,0.0087,0.0099,0.0096,0.0094,0.0093,0,0,0,0,0,0,0,0.0409,0.0403,0.0369,0.0371,0.0364,0.0319,0.0311,0.0275,0.0228,0.0274,0.0269,0.0264,0.0172,0.0149,0.0142,0.0085,0.0099,0.0095,0.0093,0.0091,-0.0023,-0.0023,0,0,0,0,0,0,0.0433,0.0407,0.0372,0.0366,0.0386,0.032,0.031,0.0309,0.0229,0.0217,0.0265,0.0261,0.0156,0.0146,0.0137,0.0122,0.0094,0.0091,0.0088,-0.0022,-0.0023,-0.0023,0,0,0,0,0,0,0.0435,0.0431,0.0376,0.0387,0.0377,0.0321,0.0319,0.0308,0.0285,0.0222,0.0209,0.0255,0.0155,0.0143,0.01,0.0117,0.0089,0.0085,-0.0021,-0.0022,-0.0023,0.0087,0,0,0,0,0,0,0.0437,0.0433,0.0438,0.0389,0.0378,0.0357,0.032,0.0306,0.0285,0.0279,0.021,0.0198,0.0154,0.0107,0.0096,0.0111,0.0082,-0.0021,-0.0022,-0.0023,0.0084,0.009,0.0095,0,0,0,0,0,0.0439,0.0448,0.0439,0.0435,0.0388,0.0357,0.0347,0.0302,0.0285,0.0278,0.0227,0.02,0.0092,0.0103,0.0091,0.0105,-0.002,-0.0022,-0.0023,0.0082,0.0089,0.0095,0,0,0,0,0,0,0.0468,0.0441,0.0429,0.043,0.0402,0.0346,0.0338,0.031,0.0263,0.0259,0.0196,0.0181,0.0146,0.0104,0.0118,0.0063,0.003,0.0027,0.0114,0.012,0.0126,0.016,0.0078,0,0,0,0,0,0.0481,0.0481,0.0447,0.0448,0.044,0.0392,0.0374,0.0347,0.0302,0.0281,0.0234,0.0178,0.0131,0.0111,0.0059,0.0038,0.0024,0.0034,0.0039,0.0045,0.006,0.0055,0.0063,-0.0028,-0.0028,-0.0027,0,0,0.0491,0.0478,0.0477,0.0455,0.0429,0.0422,0.0379,0.0361,0.0354,0.0277,0.0251,0.0196,0.0126,0.0096,0.0077,0.0066,0.0062,0.0043,0.0049,0.0062,0.0055,0.0064,0.0072,-0.0028,-0.0028,-0.0028,0,0,0.0514,0.0505,0.0513,0.0498,0.0474,0.0446,0.0448,0.0402,0.0381,0.0352,0.0291,0.0251,0.018,0.0138,0.0106,0.0111,0.0087,0.0088,0.0154,0.0149,0.0158,0.0165,0.017,0.0176,0.0097,0.0098,0.0098,0,0.0527,0.0538,0.051,0.0516,0.0513,0.0465,0.0476,0.0447,0.0392,0.0387,0.0357,0.0263,0.0204,0.0175,0.0169,0.013,0.0125,0.0143,0.0162,0.0169,0.0175,0.0177,0.0183,0.0103,0.0102,0.0102,0.0101,0,0.0559,0.0566,0.0571,0.0567,0.0559,0.0559,0.0529,0.0519,0.0492,0.0462,0.0432,0.0353,0.0301,0.0272,0.0221,0.0226,0.0209,0.0172,0.0161,0.0192,0.019,0.0195,0.011,0.0108,0.0107,0.0105,0,0,0.059,0.0593,0.0596,0.0612,0.059,0.0592,0.0592,0.0583,0.0599,0.0542,0.0562,0.0466,0.0429,0.0389,0.0324,0.0318,0.0348,0.0272,0.0269,0.0304,0.0353,0.0323,0.0325,0.0322,0.0323,0.0324,0.0341,0,0.0623,0.0658,0.0646,0.0678,0.0695,0.0669,0.068,0.0667,0.0646,0.0652,0.0588,0.0568,0.0471,0.0461,0.0434,0.037,0.0363,0.0348,0.0292,0.0291,0.0284,0.033,0.0335,0.0348,0.0345,0.0346,0.0346,0,0.0661,0.0682,0.0726,0.0754,0.0762,0.0776,0.0805,0.0807,0.0797,0.0785,0.0755,0.0701,0.0667,0.0591,0.0513,0.0511,0.0441,0.0393,0.0392,0.0331,0.027,0.031,0.0357,0.0242,0.0353,0.0353,0.0352,0,0.0712,0.0739,0.0784,0.0792,0.0812,0.084,0.0853,0.0853,0.088,0.0882,0.0911,0.0837,0.0827,0.0735,0.06,0.0571,0.0533,0.0476,0.0385,0.0383,0.0359,0.0352,0.0312,0.0436,0.0436,0.0436,0.0436,0,0.0755,0.079,0.0818,0.0845,0.0914,0.0907,0.0977,0.0979,0.1007,0.1067,0.0987,0.1023,0.0865,0.0807,0.0672,0.055,0.0581,0.0418,0.0391,0.0394,0.0391,0.0263,0.0187,0.0437,0.0437,0.0437,0.0437,0,0.0799,0.0813,0.0871,0.0917,0.0941,0.0993,0.1063,0.1111,0.113,0.1216,0.1231,0.118,0.1109,0.0942,0.0805,0.0656,0.0468,0.0479,0.0495,0.0469,0.0268,0.0197,0.0119,0.0066,0.0401,0.0401,0.04,0,0.0822,0.0859,0.0933,0.0981,0.1007,0.1082,0.1138,0.1171,0.1233,0.1318,0.1374,0.1334,0.1329,0.1107,0.0836,0.0618,0.0472,0.0463,0.0394,0.028,0.0181,0.0125,0.0083,0.041,0.041,0.041,0.041,0,0.0871,0.0901,0.0952,0.1051,0.1122,0.1206,0.1295,0.1366,0.1433,0.1521,0.1623,0.164,0.1424,0.1205,0.0875,0.0697,0.0384,0.045,0.0332,0.0193,0.0131,0.0061,0.0378,0.0407,0.0407,0.0408,0.0408,0.0408,0.091,0.0957,0.1032,0.1126,0.121,0.1325,0.1408,0.1519,0.1653,0.1793,0.1799,0.1857,0.1537,0.1092,0.0832,0.0369,0.0361,0.0232,0.0162,0.0121,0.005,0.0365,0.0353,0.0353,0.0353,0.0353,0.0353,0,0.0953,0.1013,0.1102,0.1216,0.1311,0.1351,0.1506,0.1602,0.1778,0.1913,0.2006,0.1909,0.1512,0.1084,0.0467,0.0149,0.003,-0.002,-0.0094,-0.0121,0.0169,0.0147,0.009,0.009,0.009,0.009,0.009,0.0091,0.0979,0.1067,0.1114,0.1278,0.136,0.1493,0.1585,0.1744,0.1874,0.2046,0.2103,0.2117,0.1834,0.0768,0.0059,-0.0114,-0.0306,-0.0365,-0.0455,-0.0263,-0.0245,-0.0228,-0.0265,-0.0408,-0.0408,-0.0704,-0.0707,-0.0709]}],[{"header":{"parameterUnit":"m.s-1","parameterCategory":2,"la1":30.2991,"la2":30.254,"lo1":-89.0895,"lo2":-89.0444,"dy":0.0017,"dx":0.0017,"nx":28,"ny":28,"refTime":"2023-10-08T21:00:00:Z","depth":"2","parameterNumber":2,"parameterNumberName":"U-component_of_CURRENTS"},"data":[0,0,0,0,0,0,0,0,0,0,0,0,0,0,0,0,0,0,0,0,0,0,0,0,0,0,0,0,0,0,0,0,0,0,0,0,0,0,0,0,0,0,0,0,0,0,0,0,0,0,0,0,0,0,0,0,0,0,0.2554,0.2554,0,0.2581,0.2581,0.2582,0.2631,0.2632,0.2632,0.2633,0.2649,0.2649,0.2649,0,0,0,0,0,0,0,0,0,0,0,0,0,0.2523,0.2524,0.2554,0.2554,0.2554,0.2581,0.2581,0.2582,0.2631,0.2632,0.2633,0.2633,0.2649,0.2649,0.2649,0,0,0,0,0,0,0,0,0,0,0,0,0,0.2546,0.2524,0.2554,0.2579,0.2581,0.2581,0.2582,0.2582,0.2631,0.2632,0.2633,0.2634,0.2649,0.2649,0.2649,0.2629,0,0,0.2648,0.2648,0,0,0,0,0,0,0,0,0.2544,0.2547,0.2575,0.2577,0.258,0.26,0.2576,0.2596,0.2631,0.2616,0.2633,0.2634,0.2629,0.263,0.2639,0.263,0.2631,0.2648,0.2648,0.2648,0.2648,0,0,0,0,0,0,0,0.2543,0.2546,0.2568,0.2575,0.2578,0.2581,0.2586,0.2581,0.262,0.2617,0.262,0.2617,0.263,0.2639,0.2639,0.2631,0.2648,0.2648,0.2648,0.2648,0.2676,0.2677,0,0,0,0,0,0,0.2532,0.2545,0.2568,0.2569,0.256,0.2581,0.2586,0.2596,0.262,0.2624,0.2616,0.2619,0.2639,0.2639,0.264,0.2705,0.2648,0.2648,0.2647,0.2675,0.2677,0.2677,0,0,0,0,0,0,0.2532,0.2534,0.2566,0.2554,0.2557,0.258,0.2591,0.2596,0.2618,0.2618,0.2623,0.2633,0.2639,0.264,0.2651,0.2702,0.2648,0.2647,0.2674,0.2676,0.2677,0.2779,0,0,0,0,0,0,0.2531,0.2534,0.2545,0.2553,0.2558,0.2582,0.2589,0.2596,0.2611,0.2616,0.2634,0.2636,0.264,0.2651,0.2651,0.2701,0.2647,0.2673,0.2675,0.2677,0.2774,0.2783,0.2791,0,0,0,0,0,0.253,0.2537,0.2546,0.2549,0.257,0.2583,0.2586,0.2607,0.2611,0.2629,0.2637,0.2636,0.2662,0.2651,0.2651,0.2702,0.2672,0.2675,0.2676,0.277,0.2782,0.2791,0,0,0,0,0,0,0.2533,0.2542,0.2553,0.2565,0.258,0.259,0.2603,0.261,0.263,0.2637,0.2638,0.2641,0.2676,0.2659,0.2647,0.2712,0.2671,0.2673,0.2742,0.2753,0.2761,0.2772,0.2647,0,0,0,0,0,0.2536,0.2548,0.2557,0.2571,0.2578,0.2592,0.26,0.2613,0.2624,0.2636,0.265,0.2661,0.268,0.2691,0.27,0.2723,0.2723,0.2756,0.2764,0.2772,0.2778,0.2837,0.2852,0.2684,0.2684,0.2684,0,0,0.2543,0.2548,0.2558,0.2573,0.2587,0.2608,0.2602,0.262,0.265,0.2631,0.268,0.2688,0.269,0.2733,0.2747,0.2728,0.2815,0.2774,0.2781,0.2783,0.2841,0.2858,0.2872,0.2685,0.2685,0.2685,0,0,0.2559,0.2569,0.2585,0.26,0.2617,0.2624,0.263,0.2651,0.2679,0.2705,0.2717,0.2757,0.2762,0.2804,0.2815,0.2867,0.2857,0.2863,0.2922,0.298,0.2995,0.3008,0.3016,0.3029,0.287,0.287,0.287,0,0.2573,0.2583,0.2593,0.2615,0.2626,0.2633,0.2655,0.2684,0.2712,0.2742,0.273,0.2784,0.2806,0.2868,0.2907,0.2894,0.2896,0.2889,0.2994,0.3008,0.302,0.3025,0.3038,0.2875,0.2875,0.2874,0.2874,0,0.2589,0.2612,0.2622,0.2653,0.2675,0.2687,0.2722,0.2765,0.2782,0.2808,0.2866,0.2886,0.2921,0.2946,0.2949,0.3047,0.301,0.3001,0.2977,0.3043,0.3043,0.3055,0.2883,0.2881,0.2879,0.2878,0,0,0.2589,0.2624,0.2633,0.2653,0.2688,0.2706,0.2774,0.2826,0.2874,0.2908,0.297,0.3028,0.3035,0.3048,0.306,0.3122,0.323,0.3106,0.3107,0.3127,0.3322,0.3209,0.3211,0.3242,0.3245,0.3247,0.3283,0,0.2598,0.2628,0.265,0.2697,0.2714,0.2761,0.2818,0.2881,0.2925,0.2995,0.3037,0.3095,0.3071,0.3107,0.3161,0.3228,0.3268,0.3218,0.3241,0.3241,0.3146,0.3224,0.2977,0.2982,0.3295,0.3297,0.3298,0,0.26,0.262,0.2654,0.2713,0.2727,0.277,0.2859,0.2913,0.3022,0.3063,0.3121,0.315,0.3257,0.3222,0.3329,0.3296,0.3315,0.3343,0.3344,0.3214,0.3153,0.2966,0.2992,0.3318,0.3316,0.3315,0.3314,0,0.2567,0.2622,0.2641,0.2661,0.2734,0.2788,0.2839,0.2942,0.2992,0.3128,0.3176,0.3257,0.3314,0.3369,0.3418,0.3397,0.3513,0.3489,0.3381,0.3371,0.3151,0.3117,0.355,0.355,0.355,0.3549,0.3549,0,0.2547,0.2573,0.2636,0.2652,0.27,0.2776,0.2846,0.2925,0.3032,0.3088,0.3203,0.3249,0.336,0.3425,0.3454,0.3449,0.3535,0.3404,0.3389,0.3174,0.3143,0.3423,0.3408,0.3551,0.355,0.355,0.355,0,0.2516,0.2546,0.2576,0.2655,0.2684,0.273,0.2832,0.2884,0.3005,0.3091,0.3146,0.3279,0.337,0.3432,0.3535,0.3478,0.3512,0.3475,0.319,0.3141,0.3315,0.3304,0.3373,0.337,0.3367,0.3365,0.3363,0,0.2493,0.2499,0.2565,0.2585,0.2627,0.27,0.2745,0.286,0.2907,0.3081,0.3109,0.325,0.3291,0.3379,0.3361,0.3369,0.3444,0.3109,0.3031,0.3326,0.3305,0.3299,0.3293,0.2772,0.2765,0.276,0.2755,0,0.2445,0.2469,0.2499,0.2533,0.2578,0.2613,0.2688,0.2714,0.2847,0.2921,0.3007,0.3075,0.316,0.3062,0.3078,0.3048,0.3098,0.2995,0.3412,0.2851,0.2762,0.274,0.2753,0.2707,0.2712,0.2715,0.2718,0.272,0.2401,0.2405,0.2434,0.2457,0.2497,0.2505,0.2498,0.2565,0.2601,0.267,0.2811,0.282,0.2854,0.2755,0.2671,0.261,0.2821,0.2689,0.2705,0.2727,0.2648,0.2558,0.2448,0.2451,0.2454,0.2457,0.2459,0,0.2317,0.233,0.2351,0.2355,0.2344,0.2408,0.2428,0.2387,0.2365,0.246,0.2502,0.2327,0.2265,0.2305,0.2139,0.2123,0.2102,0.2029,0.1987,0.2038,0.2083,0.1969,0.159,0.1587,0.1584,0.1581,0,0,0.227,0.2244,0.2242,0.2179,0.2198,0.2131,0.2114,0.2075,0.2087,0.2044,0.2029,0.2196,0.2258,0.1907,0.1853,0.1692,0.1851,0.1623,0.2328,0.2333,0.2374,0.2479,0.2364,0,0,0,0,0]},{"header":{"parameterUnit":"m.s-1","parameterCategory":2,"la1":30.2991,"la2":30.254,"lo1":-89.0895,"lo2":-89.0444,"dy":0.0017,"dx":0.0017,"nx":28,"ny":28,"refTime":"2023-10-08T21:00:00:Z","depth":"2","parameterNumber":3,"parameterNumberName":"V-component_of_CURRENTS"},"data":[0,0,0,0,0,0,0,0,0,0,0,0,0,0,0,0,0,0,0,0,0,0,0,0,0,0,0,0,0,0,0,0,0,0,0,0,0,0,0,0,0,0,0,0,0,0,0,0,0,0,0,0,0,0,0,0,0,0,0.0295,0.0294,0,0.022,0.0219,0.0218,0.0172,0.0172,0.0171,0.0171,0.0119,0.0118,0.0117,0,0,0,0,0,0,0,0,0,0,0,0,0,0.0324,0.0324,0.0295,0.0294,0.0293,0.022,0.0219,0.0218,0.0172,0.0172,0.0171,0.0171,0.012,0.0118,0.0117,0,0,0,0,0,0,0,0,0,0,0,0,0,0.0285,0.0324,0.0295,0.0263,0.0259,0.0221,0.0219,0.0218,0.0172,0.0172,0.0171,0.0171,0.012,0.0118,0.0117,0.0108,0,0,0.0111,0.011,0,0,0,0,0,0,0,0,0.0288,0.0284,0.0268,0.0265,0.0261,0.0206,0.021,0.0183,0.0172,0.0203,0.0171,0.0171,0.0152,0.0147,0.0131,0.0105,0.0103,0.0111,0.0109,0.0109,0.0108,0,0,0,0,0,0,0,0.029,0.0287,0.0264,0.0267,0.0263,0.0227,0.0222,0.0204,0.0179,0.02,0.0197,0.0192,0.015,0.0133,0.013,0.0102,0.0111,0.0109,0.0108,0.0107,0.0066,0.0066,0,0,0,0,0,0,0.0307,0.029,0.0266,0.0262,0.0276,0.0227,0.0221,0.0223,0.0178,0.0171,0.0192,0.019,0.0136,0.0132,0.0128,0.0123,0.0109,0.0107,0.0106,0.0066,0.0066,0.0066,0,0,0,0,0,0,0.0308,0.0306,0.0269,0.0275,0.0268,0.0227,0.0229,0.0221,0.0207,0.0172,0.0165,0.0186,0.0136,0.013,0.0114,0.012,0.0106,0.0104,0.0066,0.0066,0.0066,0.0109,0,0,0,0,0,0,0.0309,0.0307,0.0312,0.0276,0.0268,0.0254,0.0229,0.022,0.0205,0.0201,0.0165,0.0159,0.0135,0.0117,0.0112,0.0117,0.0103,0.0066,0.0066,0.0066,0.0107,0.011,0.0113,0,0,0,0,0,0.0311,0.0321,0.0313,0.031,0.0277,0.0255,0.0247,0.0216,0.0205,0.0202,0.0175,0.0161,0.0115,0.0116,0.011,0.0115,0.0066,0.0066,0.0066,0.0106,0.0109,0.0113,0,0,0,0,0,0,0.0333,0.0316,0.0307,0.031,0.0288,0.0248,0.0242,0.0222,0.0197,0.0197,0.0161,0.0154,0.0142,0.0123,0.0125,0.0103,0.0088,0.0087,0.012,0.0123,0.0126,0.0156,0.0101,0,0,0,0,0,0.0342,0.0347,0.0321,0.0323,0.0317,0.0282,0.0268,0.025,0.0223,0.0211,0.0184,0.0158,0.0137,0.0127,0.0105,0.0095,0.0083,0.0093,0.0096,0.0099,0.0119,0.0109,0.0113,0.0067,0.0067,0.0067,0,0,0.0351,0.0342,0.0344,0.0328,0.0309,0.0307,0.0273,0.0261,0.0258,0.0212,0.0201,0.017,0.0137,0.0122,0.0116,0.0108,0.0101,0.0099,0.0102,0.0121,0.0109,0.0114,0.0118,0.0067,0.0067,0.0067,0,0,0.0371,0.0365,0.0376,0.0365,0.0346,0.0327,0.0329,0.0295,0.0281,0.0264,0.0231,0.0207,0.0171,0.0149,0.0134,0.0142,0.0118,0.0129,0.0167,0.0156,0.016,0.0164,0.0139,0.014,0.0129,0.0129,0.0129,0,0.0381,0.0394,0.0373,0.038,0.0379,0.0343,0.0355,0.0334,0.0298,0.0295,0.027,0.0222,0.0188,0.0178,0.0173,0.015,0.0136,0.0157,0.0162,0.0165,0.0168,0.0142,0.0143,0.0131,0.0131,0.0131,0.0131,0,0.041,0.0418,0.0425,0.0427,0.0422,0.0425,0.0404,0.0397,0.0375,0.0351,0.0335,0.0283,0.0258,0.0234,0.0203,0.0205,0.0184,0.0168,0.0157,0.0176,0.0146,0.0146,0.0134,0.0134,0.0133,0.0132,0,0,0.0438,0.0445,0.0448,0.0464,0.0451,0.0455,0.0459,0.0454,0.0467,0.042,0.0432,0.0372,0.0344,0.0325,0.028,0.0261,0.025,0.0226,0.0224,0.0209,0.0218,0.0193,0.019,0.0235,0.0235,0.0236,0.0183,0,0.0467,0.0499,0.0492,0.0525,0.0543,0.0524,0.0536,0.0528,0.0507,0.0507,0.0457,0.0447,0.0378,0.037,0.0339,0.0282,0.0255,0.0266,0.0196,0.0194,0.0178,0.0192,0.0204,0.0158,0.0183,0.0183,0.0183,0,0.05,0.052,0.0561,0.059,0.0598,0.0615,0.0641,0.0646,0.0633,0.0618,0.0593,0.055,0.0516,0.0459,0.0373,0.0383,0.0309,0.0255,0.0251,0.0222,0.0171,0.0146,0.0157,0.0182,0.0182,0.0182,0.0182,0,0.0542,0.057,0.0611,0.0619,0.0643,0.0669,0.0685,0.0684,0.0707,0.0698,0.0714,0.065,0.0637,0.0545,0.0418,0.0401,0.0325,0.0286,0.0191,0.0187,0.0183,0.0178,0.0232,0.0232,0.0232,0.0232,0.0233,0,0.058,0.0613,0.0639,0.0665,0.0729,0.0726,0.0788,0.079,0.081,0.0855,0.0782,0.0801,0.066,0.0591,0.0463,0.0332,0.0356,0.021,0.0181,0.0194,0.0191,0.0205,0.0202,0.023,0.0231,0.0231,0.0232,0,0.062,0.0633,0.0686,0.073,0.0752,0.0801,0.0866,0.0907,0.0916,0.0976,0.0985,0.0925,0.0836,0.068,0.0531,0.0401,0.0272,0.0215,0.0232,0.0206,0.0125,0.0125,0.0109,0.0108,0.0107,0.0106,0.0105,0,0.0643,0.0675,0.0743,0.0786,0.0812,0.0882,0.0935,0.0962,0.1011,0.1056,0.1096,0.103,0.099,0.0754,0.0526,0.0308,0.0271,0.0161,0.0129,0.0144,0.0117,0.0118,0.012,0.0127,0.0126,0.0126,0.0126,0,0.0689,0.0713,0.076,0.0849,0.0916,0.0993,0.1071,0.1129,0.1174,0.1227,0.1273,0.1248,0.103,0.081,0.0506,0.035,0.0197,0.0146,0.0174,0.0158,0.0157,0.0131,0.0133,0.0123,0.0123,0.0123,0.0123,0.0123,0.0724,0.0766,0.0828,0.0915,0.0992,0.1091,0.1163,0.1245,0.1339,0.1417,0.1396,0.1361,0.1114,0.0725,0.0458,0.0172,0.0189,0.0074,0.0076,0.0079,0.0093,0.0091,0.0045,0.0045,0.0045,0.0045,0.0045,0,0.0761,0.081,0.0889,0.0989,0.1075,0.1115,0.1243,0.1312,0.1427,0.1493,0.1524,0.1287,0.1041,0.0752,0.0337,0.0089,0.0065,-0.0006,0.0025,0.0031,0.0035,0.0047,-0.0014,-0.0015,-0.0016,-0.0016,0,0,0.078,0.0854,0.0893,0.1034,0.1111,0.1226,0.1303,0.1408,0.148,0.1535,0.1517,0.1474,0.1133,0.0819,0.0481,0.0237,0.0186,0.0178,0.0252,0.0335,0.0342,0.0108,0.0136,0,0,0,0,0]}],[{"header":{"parameterUnit":"m.s-1","parameterCategory":2,"la1":30.2991,"la2":30.254,"lo1":-89.0895,"lo2":-89.0444,"dy":0.0017,"dx":0.0017,"nx":28,"ny":28,"refTime":"2023-10-08T21:00:00:Z","depth":"4","parameterNumber":2,"parameterNumberName":"U-component_of_CURRENTS"},"data":[0,0,0,0,0,0,0,0,0,0,0,0,0,0,0,0,0,0,0,0,0,0,0,0,0,0,0,0,0,0,0,0,0,0,0,0,0,0,0,0,0,0,0,0,0,0,0,0,0,0,0,0,0,0,0,0,0,0,0.1508,0.1509,0,0.1562,0.1563,0.1563,0.1612,0.1613,0.1614,0.1615,0.1586,0.1584,0.1583,0,0,0,0,0,0,0,0,0,0,0,0,0,0.1435,0.1435,0.1508,0.1509,0.151,0.1562,0.1563,0.1563,0.1611,0.1613,0.1614,0.1615,0.1587,0.1585,0.1582,0,0,0,0,0,0,0,0,0,0,0,0,0,0.1471,0.1436,0.1508,0.1545,0.1549,0.1562,0.1563,0.1563,0.1611,0.1613,0.1614,0.1616,0.1587,0.1585,0.1582,0.1535,0,0,0.1574,0.1573,0,0,0,0,0,0,0,0,0.1469,0.1473,0.1538,0.1542,0.1547,0.1586,0.1527,0.1551,0.1611,0.1582,0.1615,0.1617,0.1581,0.1579,0.1579,0.1533,0.1532,0.1574,0.1572,0.1571,0.1571,0,0,0,0,0,0,0,0.1466,0.1471,0.1524,0.1539,0.1545,0.1555,0.1561,0.1531,0.1566,0.1585,0.159,0.1603,0.1582,0.1582,0.1579,0.1532,0.1574,0.1572,0.157,0.1569,0.1574,0.1576,0,0,0,0,0,0,0.1469,0.1468,0.1523,0.1527,0.1517,0.1555,0.1562,0.1568,0.1569,0.1572,0.1602,0.1606,0.1585,0.1582,0.1578,0.1619,0.1571,0.1569,0.1567,0.1572,0.1575,0.1576,0,0,0,0,0,0,0.1466,0.1472,0.1521,0.1503,0.1511,0.1556,0.1561,0.1568,0.1602,0.1584,0.1585,0.1633,0.1586,0.1582,0.1592,0.1614,0.1568,0.1565,0.157,0.1573,0.1575,0.1637,0,0,0,0,0,0,0.1464,0.1471,0.1489,0.1503,0.1512,0.155,0.1561,0.1568,0.1609,0.1614,0.161,0.1607,0.1587,0.1596,0.1589,0.161,0.1563,0.1568,0.1572,0.1575,0.1633,0.1641,0.1649,0,0,0,0,0,0.1461,0.1479,0.1489,0.1497,0.153,0.1551,0.1557,0.159,0.1609,0.1625,0.1634,0.1609,0.1612,0.1595,0.1587,0.1607,0.1567,0.1571,0.1574,0.1629,0.164,0.1648,0,0,0,0,0,0,0.1462,0.1486,0.1498,0.1524,0.1547,0.1562,0.1589,0.1605,0.1624,0.1641,0.1619,0.1617,0.1642,0.1615,0.1597,0.1622,0.1589,0.1591,0.1634,0.1643,0.1651,0.1684,0.1561,0,0,0,0,0,0.1467,0.1488,0.1508,0.1534,0.1547,0.157,0.159,0.1612,0.1627,0.164,0.1642,0.1644,0.1644,0.1639,0.1638,0.1631,0.1641,0.1645,0.1653,0.166,0.1684,0.1729,0.1743,0.1589,0.1589,0.1589,0,0,0.1477,0.1495,0.1509,0.1537,0.1557,0.1575,0.1586,0.1626,0.1647,0.1629,0.1668,0.1675,0.1654,0.1669,0.1676,0.1649,0.1706,0.1664,0.167,0.1692,0.1734,0.1749,0.1762,0.1592,0.1591,0.1591,0,0,0.1494,0.152,0.1537,0.1557,0.1597,0.1606,0.1623,0.1656,0.1682,0.1709,0.1715,0.1747,0.173,0.1736,0.1727,0.1774,0.1757,0.177,0.182,0.1862,0.1875,0.1887,0.1907,0.192,0.176,0.1761,0.1761,0,0.1507,0.1526,0.1548,0.1568,0.1591,0.1621,0.1642,0.1663,0.1701,0.1723,0.1736,0.1775,0.1766,0.1782,0.1816,0.1793,0.181,0.1779,0.1873,0.1884,0.1896,0.1914,0.1928,0.1764,0.1764,0.1763,0.1763,0,0.1522,0.1552,0.1567,0.1596,0.1621,0.165,0.1677,0.1717,0.1753,0.1773,0.1831,0.1841,0.1863,0.1868,0.1857,0.1925,0.191,0.1887,0.1847,0.1915,0.1929,0.1943,0.1769,0.1768,0.1767,0.1766,0,0,0.1511,0.1565,0.1574,0.1598,0.1642,0.1663,0.1704,0.1743,0.1784,0.1833,0.1887,0.1919,0.1947,0.1945,0.1943,0.199,0.2084,0.1983,0.1984,0.2003,0.2175,0.2027,0.2026,0.2081,0.2084,0.2086,0.215,0,0.1516,0.1556,0.1583,0.1629,0.1649,0.1695,0.1731,0.1778,0.182,0.1881,0.1918,0.1972,0.1961,0.1999,0.2041,0.2083,0.2125,0.2069,0.2109,0.2111,0.197,0.2039,0.2095,0.2159,0.2162,0.2165,0.2166,0,0.1511,0.1542,0.1585,0.1653,0.1668,0.1707,0.1782,0.1821,0.1896,0.1939,0.1995,0.2026,0.2104,0.2098,0.219,0.2157,0.2185,0.2212,0.2214,0.2068,0.1987,0.2082,0.219,0.2188,0.2186,0.2185,0.2183,0,0.1477,0.1543,0.1581,0.1603,0.1679,0.1726,0.1776,0.1848,0.1892,0.1994,0.2047,0.2112,0.2182,0.2226,0.2271,0.225,0.2375,0.2332,0.2218,0.2207,0.2293,0.228,0.2415,0.2415,0.2415,0.2415,0.2415,0,0.145,0.1487,0.1582,0.1602,0.1668,0.1732,0.1807,0.1867,0.1959,0.2012,0.2085,0.2136,0.2233,0.2292,0.2307,0.2296,0.2391,0.2252,0.2224,0.2314,0.2303,0.2301,0.2287,0.2417,0.2417,0.2416,0.2416,0,0.1395,0.1454,0.1509,0.1612,0.1652,0.1705,0.1824,0.1865,0.1974,0.2051,0.2097,0.2199,0.2277,0.2329,0.2421,0.2336,0.2346,0.2319,0.242,0.2393,0.214,0.2129,0.2191,0.2187,0.2183,0.218,0.2177,0,0.1364,0.139,0.151,0.1548,0.1601,0.1694,0.1745,0.1862,0.1902,0.206,0.2082,0.2213,0.2262,0.2254,0.2324,0.2327,0.2303,0.2274,0.2208,0.2156,0.2123,0.2118,0.2111,0.2171,0.217,0.2169,0.2168,0,0.1308,0.1368,0.1414,0.1497,0.1564,0.1621,0.171,0.173,0.186,0.198,0.2025,0.2057,0.2141,0.2175,0.2202,0.2195,0.2269,0.2234,0.2241,0.2179,0.2132,0.2102,0.21,0.2155,0.2157,0.2158,0.2159,0,0.1274,0.1291,0.1366,0.1425,0.1504,0.1524,0.158,0.1634,0.1696,0.1863,0.1879,0.2005,0.2131,0.2109,0.2124,0.2113,0.2077,0.1986,0.2005,0.202,0.1931,0.1845,0.1775,0,0,0,0,0,0.1231,0.1234,0.1284,0.1335,0.1409,0.1452,0.1542,0.1595,0.1725,0.1712,0.179,0.1853,0.1888,0.1947,0.1903,0.2042,0.208,0.1978,0.1984,0.2082,0.2097,0.2006,0,0,0,0,0,0,0.1194,0.1238,0.1248,0.1254,0.1271,0.133,0.1378,0.1458,0.1457,0.16,0.1633,0.174,0.1807,0.191,0.1873,0.1889,0.1851,0.2059,0.2054,0.2073,0.2087,0.2099,0.2011,0,0,0,0,0]},{"header":{"parameterUnit":"m.s-1","parameterCategory":2,"la1":30.2991,"la2":30.254,"lo1":-89.0895,"lo2":-89.0444,"dy":0.0017,"dx":0.0017,"nx":28,"ny":28,"refTime":"2023-10-08T21:00:00:Z","depth":"4","parameterNumber":3,"parameterNumberName":"V-component_of_CURRENTS"},"data":[0,0,0,0,0,0,0,0,0,0,0,0,0,0,0,0,0,0,0,0,0,0,0,0,0,0,0,0,0,0,0,0,0,0,0,0,0,0,0,0,0,0,0,0,0,0,0,0,0,0,0,0,0,0,0,0,0,0,0.0238,0.0238,0,0.0203,0.0202,0.0202,0.0182,0.0182,0.0182,0.0182,0.0196,0.0196,0.0197,0,0,0,0,0,0,0,0,0,0,0,0,0,0.0245,0.0246,0.0238,0.0238,0.0238,0.0203,0.0202,0.0202,0.0182,0.0182,0.0182,0.0182,0.0196,0.0196,0.0197,0,0,0,0,0,0,0,0,0,0,0,0,0,0.0229,0.0246,0.0239,0.0224,0.0222,0.0203,0.0202,0.0201,0.0182,0.0182,0.0182,0.0182,0.0196,0.0196,0.0197,0.0201,0,0,0.0199,0.0199,0,0,0,0,0,0,0,0,0.023,0.0229,0.0227,0.0225,0.0223,0.0197,0.021,0.0204,0.0182,0.0197,0.0182,0.0182,0.0201,0.0201,0.0193,0.0201,0.0202,0.0199,0.0199,0.0199,0.0199,0,0,0,0,0,0,0,0.0231,0.023,0.0224,0.0226,0.0224,0.0204,0.0202,0.0208,0.02,0.0196,0.0194,0.0191,0.0201,0.0193,0.0194,0.0202,0.0199,0.0199,0.0199,0.02,0.0226,0.0227,0,0,0,0,0,0,0.0239,0.0231,0.0225,0.0223,0.0227,0.0204,0.0202,0.0205,0.0199,0.0198,0.0191,0.019,0.0192,0.0193,0.0194,0.0211,0.0199,0.02,0.02,0.0226,0.0226,0.0227,0,0,0,0,0,0,0.0239,0.0239,0.0226,0.0226,0.0223,0.0204,0.0208,0.0204,0.0202,0.0195,0.0195,0.0193,0.0192,0.0193,0.0205,0.0211,0.02,0.02,0.0225,0.0226,0.0227,0.0238,0,0,0,0,0,0,0.024,0.024,0.0246,0.0227,0.0223,0.0221,0.0208,0.0204,0.02,0.0198,0.0196,0.0197,0.0192,0.0204,0.0205,0.0212,0.0201,0.0225,0.0226,0.0226,0.0237,0.0239,0.024,0,0,0,0,0,0.024,0.0251,0.0247,0.0246,0.0233,0.0221,0.0218,0.0203,0.02,0.0201,0.02,0.0197,0.0209,0.0205,0.0206,0.0213,0.0225,0.0226,0.0226,0.0236,0.0238,0.024,0,0,0,0,0,0,0.0255,0.0249,0.0244,0.0252,0.024,0.0218,0.0219,0.0209,0.0207,0.0211,0.0203,0.0204,0.0217,0.0215,0.021,0.0223,0.0216,0.0217,0.0223,0.0225,0.0227,0.0238,0.0201,0,0,0,0,0,0.0262,0.0269,0.0255,0.0261,0.0259,0.024,0.0235,0.0226,0.022,0.0219,0.0214,0.0215,0.022,0.0223,0.0226,0.0235,0.0219,0.024,0.0242,0.0243,0.0254,0.0231,0.0231,0.0229,0.0229,0.0229,0,0,0.0269,0.0266,0.027,0.0264,0.0256,0.0259,0.0238,0.0235,0.0239,0.0223,0.0231,0.0224,0.0224,0.0231,0.0237,0.0232,0.0232,0.0244,0.0245,0.0255,0.0232,0.0232,0.0232,0.023,0.023,0.023,0,0,0.0285,0.0286,0.0297,0.0292,0.0284,0.0275,0.0278,0.0262,0.0258,0.0261,0.0251,0.0249,0.0253,0.0249,0.025,0.0265,0.0242,0.0265,0.0281,0.0258,0.0258,0.0258,0.0221,0.0217,0.0264,0.0264,0.0264,0,0.0293,0.0307,0.0297,0.0305,0.0307,0.0287,0.03,0.0292,0.028,0.0282,0.0269,0.0266,0.0262,0.0272,0.0272,0.0269,0.0246,0.0272,0.0259,0.0259,0.0258,0.0221,0.0217,0.0264,0.0264,0.0264,0.0264,0,0.0315,0.0327,0.0334,0.0342,0.0342,0.0349,0.0341,0.0341,0.0333,0.0321,0.0323,0.0305,0.0305,0.0296,0.0289,0.0287,0.0268,0.0263,0.0253,0.0259,0.0219,0.0214,0.0265,0.0265,0.0265,0.0265,0,0,0.0332,0.0348,0.0351,0.0366,0.0365,0.0372,0.0382,0.0386,0.0396,0.0373,0.038,0.0368,0.0349,0.0349,0.0331,0.0306,0.0272,0.0284,0.0282,0.0244,0.0207,0.0197,0.0191,0.0261,0.0261,0.026,0.0174,0,0.0353,0.0383,0.0383,0.0415,0.0432,0.0425,0.0439,0.044,0.0428,0.0428,0.0402,0.0404,0.0372,0.0371,0.034,0.03,0.0263,0.0295,0.0211,0.0208,0.0196,0.0187,0.0259,0.0171,0.017,0.0169,0.0168,0,0.0374,0.0395,0.0431,0.0462,0.047,0.0487,0.051,0.052,0.0512,0.0502,0.0485,0.046,0.0434,0.0402,0.0321,0.0341,0.0278,0.0232,0.0228,0.0216,0.019,0.0168,0.016,0.0161,0.0161,0.0162,0.0162,0,0.0397,0.043,0.0465,0.0474,0.0503,0.0525,0.0544,0.0545,0.0566,0.0552,0.0556,0.0508,0.0497,0.0415,0.0321,0.032,0.022,0.0206,0.0131,0.0128,0.0158,0.0159,0.014,0.014,0.0141,0.0141,0.0141,0,0.0419,0.0449,0.0483,0.0504,0.0558,0.0564,0.0613,0.0617,0.0629,0.0658,0.0603,0.0603,0.0501,0.0431,0.0332,0.022,0.0226,0.0134,0.011,0.0162,0.0165,0.0153,0.0155,0.0138,0.0138,0.0139,0.0139,0,0.0436,0.0456,0.0504,0.0549,0.0572,0.0613,0.0674,0.0701,0.0705,0.0739,0.0741,0.068,0.059,0.047,0.0335,0.0246,0.0132,0.0086,0.0143,0.0124,0.0048,0.0052,-0.0006,-0.0007,-0.0008,-0.0009,-0.0009,0,0.0446,0.0473,0.0543,0.0582,0.0608,0.0671,0.0713,0.0741,0.0772,0.0784,0.08,0.0729,0.0672,0.0471,0.0337,0.014,0.0112,0.0037,0.0047,0.0052,0.0034,0.004,0.0045,-0.0011,-0.0011,-0.0011,-0.0011,0,0.0467,0.0495,0.0536,0.0616,0.0674,0.0741,0.0804,0.0832,0.0865,0.0871,0.085,0.0747,0.0642,0.0479,0.0327,0.0185,0.008,0.0028,0.0029,0.0038,0.0046,0.003,0.0037,-0.0014,-0.0014,-0.0014,-0.0013,0,0.0486,0.0517,0.0574,0.0645,0.0721,0.0787,0.0822,0.0859,0.0892,0.0902,0.0892,0.0777,0.0714,0.0502,0.0362,0.0223,0.0183,0.0124,0.0119,0.0121,0.0184,0.0214,0.0186,0,0,0,0,0,0.0498,0.0533,0.0597,0.0674,0.0749,0.0796,0.0869,0.0894,0.0927,0.092,0.091,0.0812,0.0611,0.0521,0.0382,0.0333,0.015,0.0162,0.0077,-0.003,-0.0027,0.0025,0,0,0,0,0,0,0.0504,0.0562,0.0592,0.0685,0.074,0.0824,0.0872,0.0897,0.0893,0.0904,0.0802,0.0762,0.0568,0.0695,0.0376,0.0334,0.0255,0.0074,0.007,-0.0032,-0.0029,-0.0026,0.0028,0,0,0,0,0]}]]